Regional Weather Roundup
Issued by NWS

Current Version | Previous Version | Text Only | Print | Product List | Glossary On
Versions: 1 2 3 4 5 6 7 8 9 10 11 12 13 14 15 16 17 18 19 20 21 22 23 24 25 26 27 28 29 30 31 32 33 34 35 36 37 38 39 40 41 42 43 44 45 46 47 48 49 50
000
ASUS44 KJAN 190010
RWRMS

MISSISSIPPI HOURLY WEATHER ROUNDUP
NATIONAL WEATHER SERVICE JACKSON MS
700 PM CDT SUN APR 18 2021

NOTE: "FAIR: INDICATES FEW OR NO CLOUDS BELOW 12,000 FEET WITH NO
SIGNIFICANT WEATHER AND/OR OBSTRUCTIONS TO VISIBILITY.

MSZ001>002-007>008-010>013-018>021-025>028-034>036-190100-
NORTHWEST MISSISSIPPI

CITY           SKY/WX    TMP DP  RH WIND       PRES   REMARKS
BATESVILLE     FAIR      59  41  51 W3        29.97S
CLARKSDALE       N/A     59  46  63 NW18G24   30.00R
CLEVELAND      MOCLDY    62  40  44 NW12      29.99R
GREENWOOD      CLEAR     63  41  44 NW6       29.98S
6HR MIN TEMP:  63; 6HR MAX TEMP:  69;

GREENVILLE     CLEAR     62  42  47 NW8       29.98S
6HR MIN TEMP:  62; 6HR MAX TEMP:  66;

OLIVE BRANCH   MOCLDY    55  46  71 NW18G29   29.97R
OXFORD         CLEAR     57  39  51 W5        29.98S
TUNICA         MOCLDY    54  46  76 NW8       30.00R
WINONA         FAIR      60  42  51 NW7       29.97S
$$

MSZ003>006-009-014>017-022>024-029>033-037>039-190100-
NORTHEAST MISSISSIPPI

CITY           SKY/WX    TMP DP  RH WIND       PRES   REMARKS
ABERDEEN       CLOUDY    63  45  51 NW7       29.96R
COLUMBUS AFB   CLOUDY    64  43  47 CALM      29.93R
6HR MIN TEMP:  64; 6HR MAX TEMP:  69;

CORINTH        CLOUDY    59  43  55 W6        29.95S
GOLDN TRIANGLE CLOUDY    64  46  52 NW6       29.95R
STARKVILLE     CLOUDY    61  45  55 NW5       29.96S
TUPELO         CLOUDY    62  40  44 VRB7      29.96R
6HR MIN TEMP:  62; 6HR MAX TEMP:  67;

$$

MSZ040-058-190100-
CENTRAL MISSISSIPPI

CITY           SKY/WX    TMP DP  RH WIND       PRES   REMARKS
JACKSON INTL   MOCLDY    65  45  48 NW10G20   29.96R
6HR MIN TEMP:  65; 6HR MAX TEMP:  72;

JACKSON HAWKNS MOCLDY    64  46  52 NW9G20    29.97R
6HR MIN TEMP:  64; 6HR MAX TEMP:  70;

MADISON          N/A    N/A N/A N/A MISG        N/A
MERIDIAN KEY   PTCLDY    66  45  46 NW7       29.92S
6HR MIN TEMP:  66; 6HR MAX TEMP:  73;

MERIDIAN NAS   PTCLDY    67  44  43 NW9       29.93R
6HR MIN TEMP:  67; 6HR MAX TEMP:  72;

RAYMOND        FAIR      64  50  59 NW9       29.97S
VICKSBURG VKS  CLEAR     63  46  55 N9G15     29.98R
$$

MSZ059>079-190100-
SOUTH MISSISSIPPI

CITY           SKY/WX    TMP DP  RH WIND       PRES   REMARKS
BROOKHAVEN     FAIR      64  50  59 NW6       29.97S
HATTIESBURG    MOCLDY    67  47  48 W3        29.93S
6HR MIN TEMP:  67; 6HR MAX TEMP:  71;

LAUREL         CLEAR     67  46  46 NW12      29.93R
MCCOMB         MOCLDY    66  49  54 NW8       29.95R
6HR MIN TEMP:  66; 6HR MAX TEMP:  71;

NATCHEZ        MOCLDY    63  49  60 N9G20     29.99R
6HR MIN TEMP:  63; 6HR MAX TEMP:  67;

PINE BELT      MOCLDY    66  51  58 NW3       29.94S
6HR MIN TEMP:  66; 6HR MAX TEMP:  72;

$$

MSZ080>082-190100-
COASTAL MISSISSIPPI

CITY           SKY/WX    TMP DP  RH WIND       PRES   REMARKS
BAY ST LOUIS   CLEAR     66  52  59 N9        29.92S
BILOXI         CLOUDY    68  52  56 N5        29.90F
6HR MIN TEMP:  68; 6HR MAX TEMP:  72;

PASCAGOULA     CLOUDY    68  53  58 NW3       29.91R
6HR MIN TEMP:  68; 6HR MAX TEMP:  74;

GULFPORT       MOCLDY    69  50  50 N6        29.91S
6HR MIN TEMP:  69; 6HR MAX TEMP:  74;

$$

LAZ007>009-015>016-023>026-190100-
NORTHEAST LOUISIANA

CITY           SKY/WX    TMP DP  RH WIND       PRES   REMARKS
BASTROP        FAIR      63  40  44 NW3       30.02S
TALLULAH/VBURG PTCLDY    64  45  49 NW7       29.99S
6HR MIN TEMP:  64; 6HR MAX TEMP:  73;

VIDALIA        FAIR      65  48  55 N10       29.98R
$$



USA.gov is the U.S. government's official web portal to all federal, state and local government web resources and services.